| time (UTC) | temp C | wind direction | speed KPH | gust KPH | rain 1hr cm | rain 24hr cm | rain mn cm | humidity % | barometer mb |
| 20260906183955 | 36 | 156 | 0.0 | 0.0 | 0.00 | 0.00 | 0.00 | 40 | 1014.1 |
| 20260906183451 | 36 | 168 | 3.2 | 4.8 | 0.00 | 0.00 | 0.00 | 40 | 1014.3 |
| 20260906182946 | 36 | 162 | 8.0 | 9.7 | 0.00 | 0.00 | 0.00 | 40 | 1014.3 |
| 20260906182442 | 36 | 136 | 4.8 | 4.8 | 0.00 | 0.00 | 0.00 | 40 | 1014.2 |
| 20260906181938 | 37 | 31 | 6.4 | 9.7 | 0.00 | 0.00 | 0.00 | 40 | 1014.3 |
| 20260906181433 | 38 | 67 | 6.4 | 11.3 | 0.00 | 0.00 | 0.00 | 39 | 1014.3 |
| 20260906180928 | 37 | 175 | 6.4 | 9.7 | 0.00 | 0.00 | 0.00 | 38 | 1014.2 |
| 20260906180423 | 37 | 139 | 0.0 | 1.6 | 0.00 | 0.00 | 0.00 | 40 | 1014.2 |
| 20260906175920 | 36 | 142 | 4.8 | 4.8 | 0.00 | 0.00 | 0.00 | 40 | 1014.6 |
| 20260906175416 | 36 | 152 | 0.0 | 0.0 | 0.00 | 0.00 | 0.00 | 41 | 1014.7 |
| 20260906174914 | 37 | 156 | 3.2 | 3.2 | 0.00 | 0.00 | 0.00 | 41 | 1014.8 |
| 20260906174408 | 37 | 67 | 3.2 | 4.8 | 0.00 | 0.00 | 0.00 | 40 | 1014.9 |
| 20260906173903 | 37 | 346 | 11.3 | 14.5 | 0.00 | 0.00 | 0.00 | 40 | 1015.1 |
| 20260906173359 | 37 | 221 | 4.8 | 4.8 | 0.00 | 0.00 | 0.00 | 40 | 1015.2 |
| 20260906172858 | 37 | 149 | 3.2 | 3.2 | 0.00 | 0.00 | 0.00 | 40 | 1015.3 |
| 20260906172354 | 37 | 171 | 1.6 | 3.2 | 0.00 | 0.00 | 0.00 | 41 | 1015.3 |
| 20260906171849 | 37 | 169 | 4.8 | 4.8 | 0.00 | 0.00 | 0.00 | 41 | 1015.3 |
| 20260906171344 | 37 | 222 | 6.4 | 6.4 | 0.00 | 0.00 | 0.00 | 40 | 1015.5 |
| 20260906170840 | 37 | 160 | 1.6 | 1.6 | 0.00 | 0.00 | 0.00 | 42 | 1015.5 |
| 20260906170336 | 36 | 164 | 1.6 | 3.2 | 0.00 | 0.00 | 0.00 | 43 | 1015.6 |
| 20260906165832 | 36 | 153 | 1.6 | 1.6 | 0.00 | 0.00 | 0.00 | 43 | 1016.0 |
| 20260906165330 | 35 | 122 | 1.6 | 3.2 | 0.00 | 0.00 | 0.00 | 45 | 1016.1 |
| 20260906164826 | 36 | 90 | 4.8 | 6.4 | 0.00 | 0.00 | 0.00 | 45 | 1016.1 |
| 20260906164325 | 36 | 95 | 3.2 | 6.4 | 0.00 | 0.00 | 0.00 | 43 | 1015.8 |
| 20260906163821 | 36 | 156 | 1.6 | 1.6 | 0.00 | 0.00 | 0.00 | 44 | 1016.2 |
| 20260906163317 | 36 | 163 | 1.6 | 3.2 | 0.00 | 0.00 | 0.00 | 44 | 1016.1 |
| 20260906162814 | 36 | 125 | 3.2 | 4.8 | 0.00 | 0.00 | 0.00 | 44 | 1016.2 |
| 20260906162308 | 36 | 133 | 3.2 | 3.2 | 0.00 | 0.00 | 0.00 | 45 | 1016.1 |
| 20260906161803 | 36 | 85 | 3.2 | 4.8 | 0.00 | 0.00 | 0.00 | 46 | 1016.4 |
| 20260906161303 | 35 | 163 | 4.8 | 4.8 | 0.00 | 0.00 | 0.00 | 45 | 1016.3 |
| 20260906160801 | 36 | 299 | 11.3 | 12.9 | 0.00 | 0.00 | 0.00 | 46 | 1016.4 |
| 20260906160256 | 35 | 167 | 1.6 | 1.6 | 0.00 | 0.00 | 0.00 | 47 | 1016.2 |
| 20260906155753 | 35 | 165 | 3.2 | 3.2 | 0.00 | 0.00 | 0.00 | 47 | 1016.4 |
| 20260906155248 | 35 | 176 | 3.2 | 3.2 | 0.00 | 0.00 | 0.00 | 47 | 1016.4 |
| 20260906154744 | 34 | 147 | 3.2 | 3.2 | 0.00 | 0.00 | 0.00 | 48 | 1016.2 |
| 20260906154239 | 35 | 184 | 4.8 | 4.8 | 0.00 | 0.00 | 0.00 | 47 | 1016.3 |
| 20260906153737 | 35 | 190 | 3.2 | 3.2 | 0.00 | 0.00 | 0.00 | 49 | 1016.3 |
| 20260906153231 | 33 | 151 | 0.0 | 0.0 | 0.00 | 0.00 | 0.00 | 50 | 1016.2 |
| 20260906152726 | 33 | 176 | 3.2 | 3.2 | 0.00 | 0.00 | 0.00 | 51 | 1016.2 |
| 20260906152220 | 33 | 204 | 6.4 | 6.4 | 0.00 | 0.00 | 0.00 | 52 | 1016.2 |
| 20260906151715 | 33 | 151 | 1.6 | 1.6 | 0.00 | 0.00 | 0.00 | 52 | 1016.2 |
| 20260906151211 | 33 | 172 | 3.2 | 4.8 | 0.00 | 0.00 | 0.00 | 53 | 1016.1 |
| 20260906150707 | 32 | 179 | 3.2 | 4.8 | 0.00 | 0.00 | 0.00 | 53 | 1016.0 |
| 20260906150201 | 32 | 153 | 3.2 | 3.2 | 0.00 | 0.00 | 0.00 | 55 | 1016.1 |
| 20260906145700 | 32 | 181 | 3.2 | 3.2 | 0.00 | 0.00 | 0.00 | 54 | 1016.0 |
| 20260906145200 | 32 | 186 | 4.8 | 4.8 | 0.00 | 0.00 | 0.00 | 54 | 1016.0 |
| 20260906144700 | 31 | 246 | 3.2 | 4.8 | 0.00 | 0.00 | 0.00 | 57 | 1016.1 |
| 20260906144154 | 31 | 177 | 3.2 | 3.2 | 0.00 | 0.00 | 0.00 | 55 | 1016.2 |
| 20260906143649 | 31 | 183 | 4.8 | 4.8 | 0.00 | 0.00 | 0.00 | 57 | 1016.2 |
| 20260906143147 | 31 | 167 | 3.2 | 3.2 | 0.00 | 0.00 | 0.00 | 57 | 1016.1 |
| 20260906142646 | 31 | 190 | 4.8 | 4.8 | 0.00 | 0.00 | 0.00 | 57 | 1016.2 |
| 20260906142141 | 31 | 175 | 3.2 | 3.2 | 0.00 | 0.00 | 0.00 | 58 | 1016.0 |
| 20260906141640 | 30 | 171 | 3.2 | 4.8 | 0.00 | 0.00 | 0.00 | 59 | 1016.4 |
| 20260906141135 | 30 | 166 | 4.8 | 4.8 | 0.00 | 0.00 | 0.00 | 61 | 1016.1 |
| 20260906140634 | 30 | 182 | 4.8 | 6.4 | 0.00 | 0.00 | 0.00 | 62 | 1016.1 |
| 20260906140129 | 29 | 187 | 8.0 | 9.7 | 0.00 | 0.00 | 0.00 | 63 | 1016.2 |
| 20260906135626 | 28 | 183 | 4.8 | 4.8 | 0.00 | 0.00 | 0.00 | 65 | 1016.1 |
| 20260906135122 | 28 | 192 | 6.4 | 6.4 | 0.00 | 0.00 | 0.00 | 65 | 1016.0 |
| 20260906134618 | 28 | 171 | 4.8 | 4.8 | 0.00 | 0.00 | 0.00 | 64 | 1016.0 |
| 20260906134113 | 28 | 171 | 4.8 | 4.8 | 0.00 | 0.00 | 0.00 | 65 | 1015.8 |
| 20260906133609 | 28 | 173 | 3.2 | 3.2 | 0.00 | 0.00 | 0.00 | 65 | 1015.8 |
| 20260906133108 | 27 | 180 | 3.2 | 4.8 | 0.00 | 0.00 | 0.00 | 67 | 1015.8 |
| 20260906132603 | 27 | 176 | 4.8 | 4.8 | 0.00 | 0.00 | 0.00 | 67 | 1015.8 |
| 20260906132059 | 27 | 168 | 3.2 | 3.2 | 0.00 | 0.00 | 0.00 | 68 | 1015.5 |
| 20260906131554 | 27 | 177 | 4.8 | 4.8 | 0.00 | 0.00 | 0.00 | 69 | 1015.5 |
| 20260906131049 | 27 | 179 | 4.8 | 4.8 | 0.00 | 0.00 | 0.00 | 69 | 1015.5 |
| 20260906130544 | 26 | 184 | 3.2 | 4.8 | 0.00 | 0.00 | 0.00 | 69 | 1015.5 |
| 20260906130039 | 26 | 177 | 4.8 | 4.8 | 0.00 | 0.00 | 0.00 | 70 | 1015.5 |
| 20260906125536 | 26 | 178 | 3.2 | 3.2 | 0.00 | 0.00 | 0.00 | 69 | 1015.6 |
| 20260906125031 | 26 | 184 | 4.8 | 6.4 | 0.00 | 0.00 | 0.00 | 69 | 1015.4 |
| 20260906124526 | 26 | 176 | 3.2 | 3.2 | 0.00 | 0.00 | 0.00 | 70 | 1015.4 |
| 20260906124021 | 26 | 173 | 3.2 | 4.8 | 0.00 | 0.00 | 0.00 | 71 | 1015.4 |
| 20260906123520 | 26 | 175 | 3.2 | 4.8 | 0.00 | 0.00 | 0.00 | 70 | 1015.4 |
| 20260906123015 | 26 | 167 | 3.2 | 3.2 | 0.00 | 0.00 | 0.00 | 71 | 1015.3 |
| 20260906122509 | 25 | 168 | 3.2 | 4.8 | 0.00 | 0.00 | 0.00 | 71 | 1015.2 |
| 20260906122005 | 25 | 177 | 3.2 | 4.8 | 0.00 | 0.00 | 0.00 | 72 | 1015.2 |
| 20260906121501 | 25 | 163 | 3.2 | 4.8 | 0.00 | 0.00 | 0.00 | 72 | 1015.2 |
| 20260906120958 | 25 | 187 | 6.4 | 6.4 | 0.00 | 0.00 | 0.00 | 72 | 1015.4 |
| 20260906120452 | 25 | 180 | 4.8 | 4.8 | 0.00 | 0.00 | 0.00 | 72 | 1015.1 |
| 20260906115949 | 25 | 169 | 3.2 | 3.2 | 0.00 | 0.00 | 0.00 | 71 | 1015.2 |
| 20260906115444 | 25 | 183 | 3.2 | 3.2 | 0.00 | 0.00 | 0.00 | 71 | 1015.3 |
| 20260906114938 | 25 | 157 | 1.6 | 1.6 | 0.00 | 0.00 | 0.00 | 72 | 1015.2 |
| 20260906114432 | 25 | 169 | 3.2 | 3.2 | 0.00 | 0.00 | 0.00 | 72 | 1015.2 |
| 20260906113928 | 25 | 171 | 4.8 | 4.8 | 0.00 | 0.00 | 0.00 | 71 | 1015.0 |
| 20260906113426 | 25 | 159 | 3.2 | 3.2 | 0.00 | 0.00 | 0.00 | 71 | 1015.2 |
| 20260906112923 | 25 | 175 | 6.4 | 6.4 | 0.00 | 0.00 | 0.00 | 71 | 1015.0 |
| 20260906112418 | 25 | 163 | 3.2 | 4.8 | 0.00 | 0.00 | 0.00 | 70 | 1015.0 |
| 20260906111913 | 25 | 189 | 4.8 | 6.4 | 0.00 | 0.00 | 0.00 | 70 | 1014.8 |
| 20260906111413 | 25 | 162 | 3.2 | 3.2 | 0.00 | 0.00 | 0.00 | 71 | 1014.9 |
| 20260906110908 | 26 | 159 | 0.0 | 1.6 | 0.00 | 0.00 | 0.00 | 70 | 1014.7 |
| 20260906110403 | 26 | 153 | 0.0 | 1.6 | 0.00 | 0.00 | 0.00 | 69 | 1014.5 |
| 20260906105902 | 26 | 165 | 1.6 | 1.6 | 0.00 | 0.00 | 0.00 | 68 | 1014.5 |
| 20260906105358 | 26 | 175 | 3.2 | 3.2 | 0.00 | 0.00 | 0.00 | 67 | 1014.8 |
| 20260906104854 | 27 | 178 | 6.4 | 6.4 | 0.00 | 0.00 | 0.00 | 66 | 1014.5 |
| 20260906104352 | 27 | 204 | 6.4 | 6.4 | 0.00 | 0.00 | 0.00 | 66 | 1014.8 |
| 20260906103851 | 26 | 175 | 4.8 | 4.8 | 0.00 | 0.00 | 0.00 | 66 | 1014.9 |
| 20260906103349 | 26 | 159 | 6.4 | 6.4 | 0.00 | 0.00 | 0.00 | 67 | 1014.7 |
| 20260906102846 | 25 | 165 | 4.8 | 4.8 | 0.00 | 0.00 | 0.00 | 70 | 1014.7 |
| 20260906102344 | 25 | 160 | 3.2 | 3.2 | 0.00 | 0.00 | 0.00 | 72 | 1014.8 |
| 20260906101840 | 24 | 161 | 1.6 | 1.6 | 0.00 | 0.00 | 0.00 | 75 | 1014.5 |
| 20260906101335 | 25 | 151 | 0.0 | 1.6 | 0.00 | 0.00 | 0.00 | 75 | 1014.6 |
| 20260906100831 | 25 | 155 | 1.6 | 1.6 | 0.00 | 0.00 | 0.00 | 74 | 1014.8 |
| 20260906100329 | 24 | 154 | 1.6 | 1.6 | 0.00 | 0.00 | 0.00 | 76 | 1014.7 |
| 20260906095824 | 24 | 154 | 0.0 | 0.0 | 0.00 | 0.00 | 0.00 | 77 | 1014.7 |
| 20260906095320 | 24 | 151 | 0.0 | 0.0 | 0.00 | 0.00 | 0.00 | 76 | 1014.6 |
| 20260906094819 | 23 | 157 | 0.0 | 0.0 | 0.00 | 0.00 | 0.00 | 77 | 1014.7 |
| 20260906094314 | 23 | 157 | 0.0 | 0.0 | 0.00 | 0.00 | 0.00 | 78 | 1014.6 |
| 20260906093811 | 23 | 158 | 0.0 | 0.0 | 0.00 | 0.00 | 0.00 | 78 | 1014.8 |
| 20260906093307 | 23 | 153 | 0.0 | 0.0 | 0.00 | 0.00 | 0.00 | 78 | 1014.7 |
| 20260906092801 | 23 | 154 | 0.0 | 0.0 | 0.00 | 0.00 | 0.00 | 78 | 1014.3 |
| 20260906092255 | 23 | 154 | 0.0 | 0.0 | 0.00 | 0.00 | 0.00 | 78 | 1014.2 |
| 20260906091746 | 23 | 156 | 1.6 | 1.6 | 0.00 | 0.00 | 0.00 | 79 | 1014.3 |
| 20260906091242 | 23 | 155 | 0.0 | 0.0 | 0.00 | 0.00 | 0.00 | 80 | 1014.3 |
| 20260906090738 | 23 | 136 | 3.2 | 3.2 | 0.00 | 0.00 | 0.00 | 79 | 1014.3 |
| 20260906090236 | 24 | 128 | 3.2 | 3.2 | 0.00 | 0.00 | 0.00 | 76 | 1014.3 |
| 20260906085736 | 23 | 149 | 0.0 | 1.6 | 0.00 | 0.00 | 0.00 | 77 | 1014.3 |
| 20260906085235 | 23 | 150 | 0.0 | 0.0 | 0.00 | 0.00 | 0.00 | 78 | 1014.1 |
| 20260906084730 | 25 | 154 | 0.0 | 0.0 | 0.00 | 0.00 | 0.00 | 77 | 1014.0 |
| 20260906084224 | 25 | 157 | 1.6 | 3.2 | 0.00 | 0.00 | 0.00 | 72 | 1013.9 |
| 20260906083719 | 24 | 167 | 1.6 | 1.6 | 0.00 | 0.00 | 0.00 | 76 | 1013.9 |
| 20260906083215 | 23 | 148 | 1.6 | 1.6 | 0.00 | 0.00 | 0.00 | 78 | 1014.0 |
| 20260906082710 | 24 | 144 | 1.6 | 1.6 | 0.00 | 0.00 | 0.00 | 77 | 1014.0 |
| 20260906082159 | 23 | 137 | 3.2 | 3.2 | 0.00 | 0.00 | 0.00 | 77 | 1014.0 |
| 20260906081649 | 23 | 146 | 1.6 | 1.6 | 0.00 | 0.00 | 0.00 | 78 | 1014.1 |
| 20260906081144 | 23 | 144 | 1.6 | 1.6 | 0.00 | 0.00 | 0.00 | 78 | 1014.2 |
| 20260906080641 | 23 | 135 | 3.2 | 3.2 | 0.00 | 0.00 | 0.00 | 78 | 1014.1 |
| 20260906080136 | 24 | 136 | 3.2 | 3.2 | 0.00 | 0.00 | 0.00 | 78 | 1014.2 |
| 20260906075636 | 24 | 141 | 1.6 | 1.6 | 0.00 | 0.00 | 0.00 | 76 | 1014.3 |
| 20260906075131 | 24 | 136 | 0.0 | 1.6 | 0.00 | 0.00 | 0.00 | 77 | 1014.3 |
| 20260906074626 | 24 | 152 | 1.6 | 3.2 | 0.00 | 0.00 | 0.00 | 77 | 1014.2 |
| 20260906074125 | 24 | 147 | 1.6 | 1.6 | 0.00 | 0.00 | 0.00 | 77 | 1014.5 |
| 20260906073620 | 23 | 142 | 1.6 | 1.6 | 0.00 | 0.00 | 0.00 | 77 | 1014.4 |
| 20260906073116 | 24 | 140 | 1.6 | 3.2 | 0.00 | 0.00 | 0.00 | 77 | 1014.2 |
| 20260906072611 | 24 | 137 | 3.2 | 3.2 | 0.00 | 0.00 | 0.00 | 77 | 1014.4 |
| 20260906072106 | 24 | 151 | 0.0 | 1.6 | 0.00 | 0.00 | 0.00 | 77 | 1014.2 |
| 20260906071602 | 24 | 145 | 0.0 | 0.0 | 0.00 | 0.00 | 0.00 | 77 | 1014.3 |
| 20260906071057 | 25 | 149 | 0.0 | 0.0 | 0.00 | 0.00 | 0.00 | 76 | 1014.3 |
| 20260906070554 | 25 | 152 | 0.0 | 1.6 | 0.00 | 0.00 | 0.00 | 74 | 1014.2 |
| 20260906070048 | 26 | 151 | 0.0 | 1.6 | 0.00 | 0.00 | 0.00 | 71 | 1014.4 |
| 20260906065548 | 25 | 145 | 1.6 | 1.6 | 0.00 | 0.00 | 0.00 | 72 | 1014.2 |
| 20260906065044 | 25 | 160 | 0.0 | 1.6 | 0.00 | 0.00 | 0.00 | 72 | 1014.2 |
| 20260906064539 | 25 | 158 | 1.6 | 1.6 | 0.00 | 0.00 | 0.00 | 73 | 1014.2 |
| 20260906064029 | 25 | 145 | 1.6 | 1.6 | 0.00 | 0.00 | 0.00 | 75 | 1014.3 |
| 20260906063524 | 25 | 147 | 0.0 | 0.0 | 0.00 | 0.00 | 0.00 | 73 | 1014.5 |
| 20260906063020 | 25 | 150 | 0.0 | 0.0 | 0.00 | 0.00 | 0.00 | 72 | 1014.6 |
| 20260906062515 | 25 | 152 | 0.0 | 0.0 | 0.00 | 0.00 | 0.00 | 71 | 1014.6 |
| 20260906062010 | 25 | 144 | 1.6 | 1.6 | 0.00 | 0.00 | 0.00 | 72 | 1014.7 |
| 20260906061505 | 25 | 153 | 0.0 | 0.0 | 0.00 | 0.00 | 0.00 | 72 | 1014.6 |
| 20260906060959 | 25 | 155 | 0.0 | 0.0 | 0.00 | 0.00 | 0.00 | 72 | 1014.5 |
| 20260906060456 | 25 | 155 | 1.6 | 1.6 | 0.00 | 0.00 | 0.00 | 75 | 1014.6 |
| 20260906055953 | 25 | 151 | 1.6 | 1.6 | 0.00 | 0.00 | 0.00 | 75 | 1014.5 |
| 20260906055448 | 24 | 147 | 1.6 | 1.6 | 0.00 | 0.00 | 0.00 | 75 | 1014.4 |
| 20260906054943 | 25 | 136 | 3.2 | 3.2 | 0.00 | 0.00 | 0.00 | 75 | 1014.5 |
| 20260906054438 | 25 | 145 | 1.6 | 1.6 | 0.00 | 0.00 | 0.00 | 75 | 1014.5 |
| 20260906053928 | 25 | 151 | 0.0 | 1.6 | 0.00 | 0.00 | 0.00 | 75 | 1014.4 |
| 20260906053424 | 25 | 151 | 0.0 | 0.0 | 0.00 | 0.00 | 0.00 | 75 | 1014.4 |
| 20260906052920 | 25 | 151 | 0.0 | 0.0 | 0.00 | 0.00 | 0.00 | 74 | 1014.3 |
| 20260906052416 | 25 | 151 | 0.0 | 0.0 | 0.00 | 0.00 | 0.00 | 73 | 1014.3 |
| 20260906051912 | 25 | 151 | 0.0 | 0.0 | 0.00 | 0.00 | 0.00 | 72 | 1014.2 |
| 20260906051406 | 25 | 152 | 0.0 | 0.0 | 0.00 | 0.00 | 0.00 | 72 | 1014.3 |
| 20260906050902 | 25 | 150 | 0.0 | 0.0 | 0.00 | 0.00 | 0.00 | 71 | 1014.3 |
| 20260906050356 | 25 | 150 | 0.0 | 0.0 | 0.00 | 0.00 | 0.00 | 70 | 1014.3 |
| 20260906045855 | 26 | 159 | 0.0 | 0.0 | 0.00 | 0.00 | 0.00 | 69 | 1014.4 |
| 20260906045349 | 25 | 158 | 0.0 | 0.0 | 0.00 | 0.00 | 0.00 | 70 | 1014.3 |
| 20260906044846 | 26 | 158 | 0.0 | 0.0 | 0.00 | 0.00 | 0.00 | 69 | 1014.2 |
| 20260906044345 | 26 | 151 | 0.0 | 0.0 | 0.00 | 0.00 | 0.00 | 69 | 1014.2 |
| 20260906043841 | 26 | 151 | 0.0 | 0.0 | 0.00 | 0.00 | 0.00 | 67 | 1014.4 |
| 20260906043338 | 27 | 157 | 0.0 | 0.0 | 0.00 | 0.00 | 0.00 | 65 | 1014.4 |
| 20260906042833 | 28 | 155 | 0.0 | 0.0 | 0.00 | 0.00 | 0.00 | 61 | 1014.3 |
| 20260906042331 | 28 | 157 | 0.0 | 0.0 | 0.00 | 0.00 | 0.00 | 61 | 1014.5 |
| 20260906041827 | 27 | 151 | 1.6 | 1.6 | 0.00 | 0.00 | 0.00 | 61 | 1014.5 |
| 20260906041323 | 28 | 153 | 1.6 | 1.6 | 0.00 | 0.00 | 0.00 | 60 | 1014.3 |
| 20260906040822 | 28 | 146 | 3.2 | 3.2 | 0.00 | 0.00 | 0.00 | 59 | 1014.5 |
| 20260906040317 | 27 | 151 | 1.6 | 1.6 | 0.00 | 0.00 | 0.00 | 61 | 1014.4 |
| 20260906035813 | 27 | 152 | 1.6 | 1.6 | 0.00 | 0.00 | 0.00 | 61 | 1014.3 |
| 20260906035308 | 27 | 159 | 1.6 | 1.6 | 0.00 | 0.00 | 0.00 | 61 | 1014.2 |
| 20260906034803 | 27 | 155 | 1.6 | 1.6 | 0.00 | 0.00 | 0.00 | 63 | 1014.3 |
| 20260906034258 | 27 | 156 | 0.0 | 1.6 | 0.00 | 0.00 | 0.00 | 62 | 1014.3 |
| 20260906033754 | 27 | 159 | 0.0 | 1.6 | 0.00 | 0.00 | 0.00 | 62 | 1014.3 |
| 20260906033253 | 27 | 157 | 1.6 | 1.6 | 0.00 | 0.00 | 0.00 | 61 | 1014.4 |
| 20260906032750 | 27 | 158 | 1.6 | 3.2 | 0.00 | 0.00 | 0.00 | 63 | 1014.3 |
| 20260906032249 | 27 | 158 | 0.0 | 0.0 | 0.00 | 0.00 | 0.00 | 66 | 1014.3 |
| 20260906031744 | 27 | 156 | 0.0 | 1.6 | 0.00 | 0.00 | 0.00 | 66 | 1014.2 |
| 20260906031241 | 30 | 136 | 1.6 | 3.2 | 0.00 | 0.00 | 0.00 | 59 | 1014.2 |
| 20260906030734 | 29 | 173 | 4.8 | 4.8 | 0.00 | 0.00 | 0.00 | 58 | 1014.3 |
| 20260906030230 | 29 | 168 | 3.2 | 4.8 | 0.00 | 0.00 | 0.00 | 57 | 1014.0 |
| 20260906025729 | 28 | 167 | 1.6 | 3.2 | 0.00 | 0.00 | 0.00 | 58 | 1014.0 |
| 20260906025223 | 27 | 146 | 0.0 | 0.0 | 0.00 | 0.00 | 0.00 | 64 | 1013.9 |
| 20260906024723 | 27 | 144 | 1.6 | 1.6 | 0.00 | 0.00 | 0.00 | 62 | 1013.8 |
| 20260906024222 | 27 | 145 | 1.6 | 1.6 | 0.00 | 0.00 | 0.00 | 66 | 1013.8 |
| 20260906023718 | 28 | 148 | 0.0 | 1.6 | 0.00 | 0.00 | 0.00 | 62 | 1013.8 |
| 20260906023213 | 28 | 147 | 1.6 | 1.6 | 0.00 | 0.00 | 0.00 | 63 | 1013.8 |
| 20260906022708 | 28 | 147 | 1.6 | 1.6 | 0.00 | 0.00 | 0.00 | 65 | 1013.8 |
| 20260906022204 | 28 | 148 | 0.0 | 0.0 | 0.00 | 0.00 | 0.00 | 62 | 1013.6 |
| 20260906021700 | 28 | 148 | 1.6 | 1.6 | 0.00 | 0.00 | 0.00 | 62 | 1013.5 |
| 20260906021157 | 28 | 148 | 0.0 | 1.6 | 0.00 | 0.00 | 0.00 | 63 | 1013.6 |
| 20260906020652 | 28 | 150 | 1.6 | 1.6 | 0.00 | 0.00 | 0.00 | 62 | 1013.5 |
| 20260906020148 | 29 | 151 | 0.0 | 0.0 | 0.00 | 0.00 | 0.00 | 63 | 1013.1 |
| 20260906015642 | 29 | 151 | 0.0 | 0.0 | 0.00 | 0.00 | 0.00 | 62 | 1013.2 |
| 20260906015141 | 29 | 151 | 0.0 | 0.0 | 0.00 | 0.00 | 0.00 | 62 | 1013.0 |
| 20260906014640 | 29 | 151 | 0.0 | 1.6 | 0.00 | 0.00 | 0.00 | 63 | 1013.0 |
| 20260906014136 | 29 | 151 | 1.6 | 1.6 | 0.00 | 0.00 | 0.00 | 62 | 1013.2 |
| 20260906013632 | 29 | 151 | 0.0 | 0.0 | 0.00 | 0.00 | 0.00 | 61 | 1013.0 |
| 20260906013127 | 29 | 151 | 0.0 | 0.0 | 0.00 | 0.00 | 0.00 | 61 | 1013.0 |
| 20260906012622 | 29 | 157 | 1.6 | 1.6 | 0.00 | 0.00 | 0.00 | 60 | 1013.0 |
| 20260906012117 | 29 | 148 | 1.6 | 1.6 | 0.00 | 0.00 | 0.00 | 59 | 1013.0 |
| 20260906011612 | 30 | 148 | 1.6 | 1.6 | 0.00 | 0.00 | 0.00 | 60 | 1012.9 |
| 20260906011107 | 30 | 149 | 0.0 | 0.0 | 0.00 | 0.00 | 0.00 | 60 | 1012.8 |
| 20260906010603 | 30 | 149 | 0.0 | 1.6 | 0.00 | 0.00 | 0.00 | 59 | 1012.7 |
| 20260906010058 | 30 | 148 | 0.0 | 1.6 | 0.00 | 0.00 | 0.00 | 58 | 1012.6 |
| 20260906005557 | 30 | 149 | 1.6 | 1.6 | 0.00 | 0.00 | 0.00 | 58 | 1012.7 |
| 20260906005056 | 30 | 149 | 1.6 | 1.6 | 0.00 | 0.00 | 0.00 | 56 | 1012.6 |
| 20260906004556 | 31 | 153 | 0.0 | 0.0 | 0.00 | 0.00 | 0.00 | 54 | 1012.5 |
| 20260906004051 | 31 | 153 | 0.0 | 0.0 | 0.00 | 0.00 | 0.00 | 54 | 1012.6 |
| 20260906003546 | 32 | 158 | 0.0 | 0.0 | 0.00 | 0.00 | 0.00 | 52 | 1012.5 |
| 20260906003042 | 32 | 158 | 1.6 | 3.2 | 0.00 | 0.00 | 0.00 | 51 | 1012.6 |
| 20260906002537 | 32 | 158 | 0.0 | 0.0 | 0.00 | 0.00 | 0.00 | 51 | 1012.6 |
| 20260906002031 | 33 | 158 | 0.0 | 0.0 | 0.00 | 0.00 | 0.00 | 51 | 1012.5 |
| 20260906001526 | 32 | 157 | 0.0 | 0.0 | 0.00 | 0.00 | 0.00 | 49 | 1012.6 |
| 20260906001021 | 33 | 158 | 0.0 | 0.0 | 0.00 | 0.00 | 0.00 | 51 | 1012.6 |
| 20260906000518 | 33 | 158 | 0.0 | 0.0 | 0.00 | 0.00 | 0.00 | 50 | 1012.8 |
| 20260906000017 | 33 | 158 | 0.0 | 0.0 | 0.00 | 0.00 | 0.00 | 49 | 1012.7 |
| 20260905235511 | 33 | 158 | 0.0 | 0.0 | 0.00 | 0.00 | 0.00 | 48 | 1012.7 |
| 20260905235007 | 33 | 159 | 0.0 | 0.0 | 0.00 | 0.00 | 0.00 | 52 | 1012.5 |
| 20260905234502 | 32 | 159 | 0.0 | 0.0 | 0.00 | 0.00 | 0.00 | 49 | 1012.8 |
| 20260905233956 | 33 | 159 | 0.0 | 0.0 | 0.00 | 0.00 | 0.00 | 52 | 1012.8 |
| 20260905233452 | 33 | 159 | 0.0 | 0.0 | 0.00 | 0.00 | 0.00 | 49 | 1012.7 |
| 20260905232950 | 33 | 159 | 0.0 | 1.6 | 0.00 | 0.00 | 0.00 | 48 | 1012.6 |
| 20260905232447 | 33 | 158 | 0.0 | 0.0 | 0.00 | 0.00 | 0.00 | 47 | 1012.8 |
| 20260905231943 | 34 | 158 | 0.0 | 1.6 | 0.00 | 0.00 | 0.00 | 48 | 1012.7 |
| 20260905231438 | 35 | 155 | 0.0 | 0.0 | 0.00 | 0.00 | 0.00 | 45 | 1012.8 |
| 20260905230934 | 35 | 151 | 1.6 | 1.6 | 0.00 | 0.00 | 0.00 | 45 | 1012.8 |
| 20260905230432 | 35 | 147 | 1.6 | 1.6 | 0.00 | 0.00 | 0.00 | 44 | 1012.8 |
| 20260905225925 | 35 | 152 | 0.0 | 0.0 | 0.00 | 0.00 | 0.00 | 44 | 1012.5 |
| 20260905225420 | 35 | 149 | 0.0 | 1.6 | 0.00 | 0.00 | 0.00 | 44 | 1012.7 |
| 20260905224915 | 35 | 148 | 1.6 | 1.6 | 0.00 | 0.00 | 0.00 | 43 | 1012.5 |
| 20260905224411 | 36 | 151 | 0.0 | 0.0 | 0.00 | 0.00 | 0.00 | 42 | 1012.6 |
| 20260905223859 | 36 | 136 | 3.2 | 3.2 | 0.00 | 0.00 | 0.00 | 41 | 1012.4 |
| 20260905223357 | 36 | 89 | 3.2 | 4.8 | 0.00 | 0.00 | 0.00 | 41 | 1012.7 |
| 20260905222852 | 37 | 105 | 3.2 | 4.8 | 0.00 | 0.00 | 0.00 | 39 | 1012.5 |
| 20260905222350 | 37 | 154 | 4.8 | 6.4 | 0.00 | 0.00 | 0.00 | 39 | 1012.6 |
| 20260905221841 | 37 | 164 | 0.0 | 1.6 | 0.00 | 0.00 | 0.00 | 39 | 1012.6 |
| 20260905221338 | 37 | 156 | 1.6 | 3.2 | 0.00 | 0.00 | 0.00 | 39 | 1012.6 |
| 20260905220833 | 37 | 117 | 3.2 | 4.8 | 0.00 | 0.00 | 0.00 | 39 | 1012.7 |
| 20260905220329 | 37 | 119 | 6.4 | 6.4 | 0.00 | 0.00 | 0.00 | 38 | 1012.7 |
| 20260905215828 | 37 | 140 | 4.8 | 6.4 | 0.00 | 0.00 | 0.00 | 39 | 1012.4 |
| 20260905215324 | 37 | 120 | 1.6 | 3.2 | 0.00 | 0.00 | 0.00 | 38 | 1012.7 |
| 20260905214821 | 37 | 148 | 4.8 | 6.4 | 0.00 | 0.00 | 0.00 | 38 | 1012.8 |
| 20260905214315 | 37 | 72 | 9.7 | 9.7 | 0.00 | 0.00 | 0.00 | 38 | 1012.8 |
| 20260905213805 | 37 | 65 | 8.0 | 11.3 | 0.00 | 0.00 | 0.00 | 38 | 1012.8 |
| 20260905213301 | 37 | 121 | 9.7 | 12.9 | 0.00 | 0.00 | 0.00 | 38 | 1012.8 |
| 20260905212801 | 37 | 132 | 1.6 | 1.6 | 0.00 | 0.00 | 0.00 | 39 | 1012.8 |
| 20260905212255 | 37 | 163 | 0.0 | 0.0 | 0.00 | 0.00 | 0.00 | 39 | 1012.9 |
| 20260905211755 | 36 | 183 | 4.8 | 4.8 | 0.00 | 0.00 | 0.00 | 40 | 1012.9 |
| 20260905211250 | 36 | 169 | 1.6 | 1.6 | 0.00 | 0.00 | 0.00 | 40 | 1013.1 |
| 20260905210747 | 36 | 166 | 1.6 | 1.6 | 0.00 | 0.00 | 0.00 | 40 | 1013.2 |
| 20260905210241 | 37 | 162 | 0.0 | 0.0 | 0.00 | 0.00 | 0.00 | 39 | 1013.4 |
| 20260905205740 | 36 | 160 | 0.0 | 0.0 | 0.00 | 0.00 | 0.00 | 40 | 1013.5 |
| 20260905205234 | 36 | 165 | 3.2 | 3.2 | 0.00 | 0.00 | 0.00 | 40 | 1013.6 |
| 20260905204733 | 36 | 171 | 3.2 | 4.8 | 0.00 | 0.00 | 0.00 | 41 | 1013.5 |
| 20260905204230 | 36 | 160 | 3.2 | 3.2 | 0.00 | 0.00 | 0.00 | 41 | 1013.8 |
| 20260905203729 | 36 | 131 | 3.2 | 3.2 | 0.00 | 0.00 | 0.00 | 41 | 1014.0 |
| 20260905203225 | 36 | 176 | 3.2 | 3.2 | 0.00 | 0.00 | 0.00 | 40 | 1013.7 |
| 20260905202720 | 37 | 153 | 1.6 | 1.6 | 0.00 | 0.00 | 0.00 | 39 | 1013.9 |
| 20260905202215 | 37 | 82 | 6.4 | 6.4 | 0.00 | 0.00 | 0.00 | 39 | 1014.1 |
| 20260905201711 | 37 | 163 | 1.6 | 1.6 | 0.00 | 0.00 | 0.00 | 39 | 1014.1 |
| 20260905201210 | 37 | 141 | 4.8 | 6.4 | 0.00 | 0.00 | 0.00 | 39 | 1014.0 |
| 20260905200706 | 38 | 179 | 3.2 | 4.8 | 0.00 | 0.00 | 0.00 | 38 | 1014.0 |
| 20260905200201 | 38 | 277 | 4.8 | 6.4 | 0.00 | 0.00 | 0.00 | 39 | 1014.2 |
| 20260905195659 | 37 | 176 | 1.6 | 3.2 | 0.00 | 0.00 | 0.00 | 39 | 1014.3 |
| 20260905195154 | 37 | 197 | 4.8 | 6.4 | 0.00 | 0.00 | 0.00 | 39 | 1014.3 |
| 20260905194650 | 37 | 98 | 1.6 | 3.2 | 0.00 | 0.00 | 0.00 | 39 | 1014.3 |
| 20260905194150 | 37 | 121 | 1.6 | 3.2 | 0.00 | 0.00 | 0.00 | 38 | 1014.4 |
| 20260905193650 | 37 | 137 | 6.4 | 9.7 | 0.00 | 0.00 | 0.00 | 39 | 1014.3 |
| 20260905193145 | 37 | 90 | 4.8 | 6.4 | 0.00 | 0.00 | 0.00 | 39 | 1014.5 |
| 20260905192640 | 37 | 114 | 6.4 | 9.7 | 0.00 | 0.00 | 0.00 | 40 | 1014.5 |
| 20260905192137 | 36 | 160 | 1.6 | 3.2 | 0.00 | 0.00 | 0.00 | 41 | 1014.6 |
| 20260905191636 | 36 | 171 | 4.8 | 4.8 | 0.00 | 0.00 | 0.00 | 41 | 1014.7 |
| 20260905191134 | 36 | 56 | 4.8 | 9.7 | 0.00 | 0.00 | 0.00 | 43 | 1014.8 |
| 20260905190632 | 36 | 154 | 0.0 | 1.6 | 0.00 | 0.00 | 0.00 | 43 | 1015.0 |
| 20260905190127 | 35 | 50 | 3.2 | 4.8 | 0.00 | 0.00 | 0.00 | 44 | 1015.1 |
| 20260905185625 | 35 | 131 | 3.2 | 4.8 | 0.00 | 0.00 | 0.00 | 44 | 1015.1 |
| 20260905185120 | 36 | 49 | 8.0 | 9.7 | 0.00 | 0.00 | 0.00 | 44 | 1015.2 |
| 20260905184615 | 36 | 158 | 3.2 | 3.2 | 0.00 | 0.00 | 0.00 | 42 | 1015.2 |